Вернуться в каталог

TIANXIANG 1

АктивенСвязьVLEO
NORAD 44310·PAYLOAD·🇨🇳 China
Это название спутника еще не подтверждено официальными источниками.

Запущен Jun 5, 2019 с Yellow Sea Launch Area

Loading…

Ближайшие Пролёты (ближайшие 24 часа)

TLE

СвежийSource: Space-Track

Эпоха: Sep 14, 2026, 12:19 UTC

1 44310U 19032A   26257.51334856  .00007745  00000-0  27195-3 0  9994
2 44310  44.9698 287.7525 0009716  44.1738 315.9920 15.29937111400866

Отслеживайте TIANXIANG 1 в реальном времени с AllMySat

Download on the App Store